Torna al catalogo

DELTA 1 DEB

AttivoSSO
NORAD 7072·DEBRIS·🇺🇸 United States

Lanciato Nov 6, 1973 da Vandenberg Space Force Base

Loading…

Prossimi Passaggi (prossime 24 ore)

TLE

AggiornatoSource: Space-Track

Epoca: Sep 14, 2026, 09:34 UTC

1 07072U 73086BQ  26257.39919378 -.00000027  00000-0  12388-3 0  9996
2 07072 101.8492 213.1872 0011177  42.3017 109.4851 12.42685280396397

Traccia DELTA 1 DEB in tempo reale con AllMySat

Download on the App Store